Flag for U.S.A. Weather past 2 weeks in Topeka, Kansas, U.S.A.

Now
64 °F

Fog.


Feels Like: 64 °F
Forecast: 64 / 85 °F
Wind: 7 mph from Southeast

Location: Philip Billard Municipal Airport

Current Time: Sep 19, 2014 at 8:53:49 AM

Latest Report: Sep 19, 2014 at 7:53 AM


Visibility: 5 mi

Pressure: 30.00 "Hg

Humidity: 100%

Dew point: 64 °F

Location of TopekaLocation

Historic Weather in Topeka — Graph

°F

Topeka temperature yesterday

Maximum temperature yesterday: 72 °F (at 2:53 PM)
Minimum temperature yesterday: 62 °F (at 12:04 AM)
Average temperature yesterday: 66 °F

Past Weeks' High & Low Weather Summary

 TemperatureHumidityPressure
High95 °F (Sep 4, 2:53 PM)100% (Sep 7, 3:53 AM)30.44 "Hg (Sep 7, 3:53 AM)
Low38 °F (Sep 13, 6:04 AM)39% (Sep 4, 4:53 PM)29.49 "Hg (Sep 9, 11:53 PM)
Average67 °F78%30.06 "Hg
* Reported Sep 4 6:53 AM — Sep 19 6:53 AM, Topeka, Weather by CustomWeather, © 2014

Note: Actual official high and low records may vary slightly from our data, if they occured in-between our weather recording intervals... More about our weather records

Advertising

Topeka weather history for previous 24 hours

 ConditionsComfort  
Time TempWeatherWind HumidityBarometerVisibility
6:53 AM
Sep 19
64 °FLow clouds.7 mph97%29.98 "Hg8 mi
5:53 AM64 °FLow clouds.6 mph97%29.97 "Hg7 mi
4:53 AM63 °FLow clouds.5 mph97%29.97 "Hg8 mi
4:00 AM62 °FFog.3 mph96%29.99 "Hg6 mi
2:53 AM63 °FClear.6 mph97%29.98 "Hg10 mi
1:53 AM63 °FClear.6 mph97%29.98 "Hg9 mi
12:53 AM62 °FFog.3 mph100%29.99 "Hg6 mi
11:53 PM
Sep 18
62 °FFog.No wind96%29.99 "Hg5 mi
10:53 PM62 °FFog.5 mph96%30.00 "Hg5 mi
9:53 PM63 °FFog.3 mph93%30.00 "Hg4 mi
8:53 PM64 °FFog.3 mph94%29.98 "Hg6 mi
7:53 PM65 °FSunny.3 mph94%29.97 "Hg7 mi
6:53 PM67 °FMore clouds than sun.9 mph87%29.96 "Hg7 mi
5:53 PM68 °FOvercast.15 mph87%29.96 "Hg10 mi
4:53 PM70 °FOvercast.10 mph81%29.96 "Hg9 mi
3:53 PM72 °FOvercast.8 mph78%29.96 "Hg9 mi
2:53 PM72 °FOvercast.7 mph76%29.97 "Hg10 mi
1:53 PM69 °FOvercast.7 mph84%29.98 "Hg8 mi
12:53 PM68 °FLow clouds.7 mph87%30.00 "Hg7 mi
11:53 AM68 °FFog.9 mph87%30.01 "Hg6 mi
10:53 AM67 °FFog.9 mph90%30.01 "Hg5 mi
9:53 AM66 °FFog.9 mph90%30.00 "Hg5 mi
8:53 AM65 °FFog.10 mph94%29.98 "Hg4 mi
Weather by CustomWeather, © 2014

See weather overviewHow to use our weather pages